Location: Recife
(8.0585°S, 34.8848°W)
Time: 11:00:47
(UTC-03:00)

Explorer 7 - Pass Details

Date: 17 April 2026
Orbit: 427 x 536 km, 50.2° (Epoch: 14 May)

Event Time Altitude Azimuth Distance (km) Brightness Sun altitude
Rises 12:44:30 0° 248° (WSW) 2,560 10.4 61.7°
Reaches altitude 10° 12:47:32 10° 275° (W) 1,700 9.8 61.1°
Maximum altitude 12:49:34 14° 307° (NW) 1,485 9.8 60.7°
Drops below altitude 10° 12:51:39 10° 339° (NNW) 1,726 9.9 60.3°
Sets 12:54:47 0° 5° (N) 2,628 10.5 59.7°
